Location: Bytom
(50.3475°N, 18.9244°E)
Time: 01:27:15
(UTC+01:00)

Envisat - Visible Passes

Search period start: 19 March 2019 00:00
Search period end: 29 March 2019 00:00
Orbit: 764 x 766 km, 98.2° (Epoch: 18 March)

Date Brightness Start Highest point End Pass type
(mag) Time Alt. Az. Time Alt. Az. Time Alt. Az.
19 Mar 6.0 19:54:38 10° WSW 19:57:07 14° W 19:59:36 10° NW visible
20 Mar 5.3 19:15:38 10° SSW 19:19:54 27° W 19:24:12 10° NW visible
21 Mar 4.0 18:37:56 10° S 18:42:54 53° W 18:47:53 10° NNW visible
22 Mar 5.9 19:42:31 10° SW 19:45:44 17° W 19:48:58 10° NW visible
23 Mar 4.9 19:04:03 10° SSW 19:08:35 33° W 19:13:10 10° NNW visible
25 Mar 5.7 19:30:38 10° SW 19:34:23 20° W 19:38:09 10° NW visible
26 Mar 4.5 18:52:32 10° SSW 18:57:17 40° W 19:02:05 10° NNW visible
27 Mar 6.1 19:58:12 10° WSW 20:00:16 12° W 20:02:22 10° WNW visible
28 Mar 5.4 19:18:54 10° SSW 19:23:02 25° W 19:27:13 10° NW visible
